| time (UTC) | temp F | wind direction | speed knots | gust knots | rain 1hr in | rain 24hr in | rain mn in | humidity % | barometer mb |
| 20260507010011 | 62 | 337 | 0.0 | 2.6 | 0.00 | 0.00 | 0.00 | 79 | 1016.4 |
| 20260507005013 | 62 | 341 | 1.7 | 5.2 | 0.00 | 0.00 | 0.00 | 79 | 1016.3 |
| 20260507004012 | 62 | 334 | 0.9 | 2.6 | 0.00 | 0.00 | 0.00 | 79 | 1016.3 |
| 20260507003111 | 63 | 344 | 1.7 | 5.2 | 0.00 | 0.00 | 0.00 | 79 | 1015.8 |
| 20260507002112 | 63 | 337 | 1.7 | 5.2 | 0.00 | 0.00 | 0.00 | 78 | 1015.9 |
| 20260507001110 | 62 | 345 | 1.7 | 3.5 | 0.00 | 0.00 | 0.00 | 79 | 1015.9 |
| 20260507000111 | 63 | 334 | 0.9 | 3.5 | 0.00 | 0.00 | 0.00 | 79 | 1015.7 |
| 20260506235111 | 63 | 317 | 1.7 | 5.2 | 0.00 | 0.00 | 0.00 | 78 | 1015.7 |
| 20260506234111 | 63 | 339 | 3.5 | 8.7 | 0.00 | 0.00 | 0.00 | 78 | 1015.8 |
| 20260506233128 | 62 | 338 | 0.9 | 3.5 | 0.00 | 0.00 | 0.00 | 78 | 1015.7 |
| 20260506231111 | 63 | 340 | 1.7 | 6.1 | 0.00 | 0.00 | 0.00 | 78 | 1015.5 |
| 20260506230110 | 63 | 329 | 2.6 | 6.1 | 0.00 | 0.00 | 0.00 | 77 | 1015.7 |
| 20260506225111 | 64 | 347 | 2.6 | 7.8 | 0.00 | 0.00 | 0.00 | 77 | 1015.6 |
| 20260506224210 | 64 | 344 | 2.6 | 9.6 | 0.00 | 0.00 | 0.00 | 76 | 1015.4 |
| 20260506223210 | 64 | 338 | 0.9 | 4.3 | 0.00 | 0.00 | 0.00 | 76 | 1015.3 |
| 20260506222211 | 66 | 328 | 1.7 | 7.0 | 0.00 | 0.00 | 0.00 | 75 | 1015.1 |
| 20260506220312 | 66 | 331 | 2.6 | 8.7 | 0.00 | 0.00 | 0.00 | 74 | 1015.2 |
| 20260506215312 | 67 | 349 | 3.5 | 7.8 | 0.00 | 0.00 | 0.00 | 73 | 1015.2 |
| 20260506214312 | 67 | 357 | 2.6 | 6.1 | 0.00 | 0.00 | 0.00 | 73 | 1015.2 |
| 20260506213311 | 68 | 320 | 3.5 | 7.8 | 0.00 | 0.00 | 0.00 | 72 | 1015.1 |
| 20260506212311 | 70 | 285 | 1.7 | 9.6 | 0.00 | 0.00 | 0.00 | 71 | 1014.9 |
| 20260506210411 | 71 | 352 | 0.9 | 3.5 | 0.00 | 0.00 | 0.00 | 70 | 1014.8 |
| 20260506205410 | 72 | 325 | 2.6 | 7.8 | 0.00 | 0.00 | 0.00 | 71 | 1014.8 |
| 20260506204510 | 72 | 346 | 1.7 | 4.3 | 0.00 | 0.00 | 0.00 | 72 | 1014.8 |
| 20260506203511 | 72 | 345 | 3.5 | 7.8 | 0.00 | 0.00 | 0.00 | 72 | 1015.2 |
| 20260506202610 | 72 | 305 | 4.3 | 7.8 | 0.00 | 0.00 | 0.00 | 72 | 1015.1 |
| 20260506200711 | 72 | 314 | 2.6 | 5.2 | 0.00 | 0.00 | 0.00 | 74 | 1015.1 |
| 20260506195809 | 72 | 328 | 4.3 | 7.8 | 0.00 | 0.00 | 0.00 | 74 | 1014.9 |
| 20260506194810 | 73 | 322 | 1.7 | 3.5 | 0.00 | 0.00 | 0.00 | 74 | 1014.8 |
| 20260506192812 | 79 | 334 | 4.3 | 7.8 | 0.00 | 0.00 | 0.00 | 69 | 1014.5 |
| 20260506191811 | 80 | 47 | 0.9 | 2.6 | 0.00 | 0.00 | 0.00 | 70 | 1014.4 |
| 20260506190812 | 80 | 46 | 0.0 | 0.9 | 0.00 | 0.00 | 0.00 | 70 | 1014.5 |
| 20260506185812 | 81 | 262 | 0.0 | 2.6 | 0.00 | 0.00 | 0.00 | 69 | 1014.8 |
| 20260506184910 | 80 | 134 | 0.0 | 0.0 | 0.00 | 0.00 | 0.00 | 69 | 1014.8 |
| 20260506182910 | 79 | 4 | 0.0 | 0.0 | 0.00 | 0.00 | 0.00 | 71 | 1014.6 |
| 20260506180912 | 77 | 17 | 0.0 | 0.0 | 0.00 | 0.00 | 0.00 | 72 | 1014.7 |
| 20260506175911 | 76 | 58 | 0.0 | 3.5 | 0.00 | 0.00 | 0.00 | 74 | 1014.7 |
| 20260506174913 | 75 | 151 | 0.0 | 2.6 | 0.00 | 0.00 | 0.00 | 74 | 1014.7 |
| 20260506173911 | 73 | 169 | 0.0 | 0.0 | 0.00 | 0.00 | 0.00 | 76 | 1014.8 |
| 20260506172910 | 72 | 45 | 0.0 | 0.9 | 0.00 | 0.00 | 0.00 | 76 | 1014.8 |
| 20260506172010 | 71 | 356 | 0.9 | 3.5 | 0.00 | 0.00 | 0.00 | 77 | 1015.0 |
| 20260506171011 | 71 | 71 | 0.0 | 2.6 | 0.00 | 0.00 | 0.00 | 78 | 1014.9 |
| 20260506170011 | 69 | 84 | 0.0 | 3.5 | 0.00 | 0.00 | 0.00 | 79 | 1015.0 |
| 20260506165010 | 68 | 109 | 0.0 | 2.6 | 0.00 | 0.00 | 0.00 | 81 | 1015.4 |
| 20260506164108 | 66 | 6 | 1.7 | 4.3 | 0.00 | 0.00 | 0.00 | 82 | 1015.5 |
| 20260506163111 | 66 | 333 | 0.0 | 2.6 | 0.00 | 0.00 | 0.00 | 82 | 1015.7 |
| 20260506162110 | 67 | 349 | 4.3 | 7.0 | 0.00 | 0.00 | 0.00 | 81 | 1015.8 |
| 20260506161110 | 71 | 342 | 3.5 | 7.8 | 0.00 | 0.00 | 0.00 | 80 | 1016.1 |
| 20260506155111 | 77 | 349 | 0.0 | 0.9 | 0.00 | 0.00 | 0.00 | 81 | 1015.2 |
| 20260506153211 | 76 | 112 | 0.0 | 0.0 | 0.00 | 0.00 | 0.00 | 82 | 1015.0 |
| 20260506152212 | 77 | 67 | 0.0 | 0.0 | 0.00 | 0.00 | 0.00 | 82 | 1014.5 |
| 20260506151310 | 77 | 19 | 0.0 | 0.0 | 0.00 | 0.00 | 0.00 | 82 | 1014.5 |
| 20260506150410 | 76 | 157 | 0.0 | 0.0 | 0.00 | 0.00 | 0.00 | 82 | 1014.2 |
| 20260506145411 | 76 | 157 | 0.0 | 1.7 | 0.00 | 0.00 | 0.00 | 82 | 1013.9 |
| 20260506144426 | 76 | 135 | 0.9 | 2.6 | 0.00 | 0.00 | 0.00 | 82 | 1013.9 |
| 20260506143410 | 76 | 135 | 0.0 | 0.0 | 0.00 | 0.00 | 0.00 | 83 | 1013.8 |
| 20260506141410 | 75 | 136 | 0.0 | 1.7 | 0.00 | 0.00 | 0.00 | 83 | 1013.4 |
| 20260506135411 | 75 | 90 | 0.0 | 0.0 | 0.00 | 0.00 | 0.00 | 84 | 1013.4 |
| 20260506134510 | 75 | 157 | 0.0 | 0.0 | 0.00 | 0.00 | 0.00 | 84 | 1012.8 |
| 20260506133511 | 75 | 156 | 0.0 | 1.7 | 0.00 | 0.00 | 0.00 | 84 | 1013.1 |
| 20260506132510 | 74 | 135 | 0.0 | 0.0 | 0.00 | 0.00 | 0.00 | 84 | 1012.8 |
| 20260506131511 | 74 | 154 | 0.0 | 2.6 | 0.00 | 0.00 | 0.00 | 85 | 1012.9 |
| 20260506130511 | 74 | 202 | 0.0 | 0.0 | 0.00 | 0.00 | 0.00 | 85 | 1012.8 |
| 20260506125510 | 74 | 157 | 0.0 | 0.0 | 0.00 | 0.00 | 0.00 | 85 | 1012.7 |
| 20260506124511 | 74 | 97 | 0.0 | 0.0 | 0.00 | 0.00 | 0.00 | 85 | 1012.5 |
| 20260506123511 | 73 | 157 | 0.0 | 0.0 | 0.00 | 0.00 | 0.00 | 85 | 1012.6 |
| 20260506122511 | 74 | 157 | 0.0 | 0.0 | 0.00 | 0.00 | 0.00 | 85 | 1012.6 |
| 20260506120625 | 74 | 157 | 0.0 | 0.0 | 0.00 | 0.00 | 0.00 | 84 | 1012.7 |
| 20260506115610 | 74 | 157 | 0.0 | 0.0 | 0.00 | 0.00 | 0.00 | 84 | 1012.5 |
| 20260506114610 | 74 | 157 | 0.0 | 0.0 | 0.00 | 0.00 | 0.00 | 84 | 1012.4 |
| 20260506113708 | 74 | 157 | 0.0 | 0.0 | 0.00 | 0.00 | 0.00 | 84 | 1012.5 |
| 20260506112709 | 74 | 161 | 0.0 | 0.0 | 0.00 | 0.00 | 0.00 | 84 | 1012.5 |
| 20260506111710 | 74 | 135 | 0.0 | 0.0 | 0.00 | 0.00 | 0.00 | 84 | 1012.5 |
| 20260506110709 | 74 | 135 | 0.0 | 0.0 | 0.00 | 0.00 | 0.00 | 84 | 1012.4 |
| 20260506105730 | 74 | 135 | 0.0 | 0.0 | 0.00 | 0.00 | 0.00 | 84 | 1012.4 |
| 20260506104828 | 74 | 135 | 0.0 | 0.0 | 0.00 | 0.00 | 0.00 | 84 | 1012.2 |
| 20260506101930 | 74 | 162 | 0.9 | 3.5 | 0.00 | 0.00 | 0.00 | 84 | 1011.8 |
| 20260506100930 | 74 | 168 | 0.9 | 3.5 | 0.00 | 0.00 | 0.00 | 84 | 1011.8 |
| 20260506095931 | 74 | 168 | 2.6 | 4.3 | 0.00 | 0.00 | 0.00 | 84 | 1011.8 |
| 20260506095029 | 74 | 174 | 1.7 | 3.5 | 0.00 | 0.00 | 0.00 | 84 | 1011.6 |
| 20260506094031 | 74 | 159 | 0.9 | 2.6 | 0.00 | 0.00 | 0.00 | 84 | 1011.6 |
| 20260506093129 | 74 | 175 | 1.7 | 3.5 | 0.00 | 0.00 | 0.00 | 84 | 1011.4 |
| 20260506092131 | 74 | 162 | 1.7 | 4.3 | 0.00 | 0.00 | 0.00 | 84 | 1011.5 |
| 20260506091228 | 74 | 175 | 3.5 | 5.2 | 0.00 | 0.00 | 0.00 | 84 | 1011.3 |
| 20260506085328 | 74 | 165 | 2.6 | 3.5 | 0.00 | 0.00 | 0.00 | 84 | 1011.2 |
| 20260506084328 | 74 | 151 | 2.6 | 3.5 | 0.00 | 0.00 | 0.00 | 84 | 1011.2 |
| 20260506083330 | 74 | 168 | 3.5 | 6.1 | 0.00 | 0.00 | 0.00 | 84 | 1011.2 |
| 20260506081329 | 74 | 169 | 1.7 | 4.3 | 0.00 | 0.00 | 0.00 | 84 | 1011.3 |
| 20260506080330 | 74 | 172 | 1.7 | 3.5 | 0.00 | 0.00 | 0.00 | 84 | 1011.3 |
| 20260506073428 | 74 | 152 | 2.6 | 5.2 | 0.00 | 0.00 | 0.00 | 84 | 1011.7 |
| 20260506072428 | 75 | 159 | 0.9 | 3.5 | 0.00 | 0.00 | 0.00 | 84 | 1011.7 |
| 20260506071528 | 75 | 155 | 3.5 | 6.1 | 0.00 | 0.00 | 0.00 | 83 | 1011.9 |
| 20260506061545 | 75 | 177 | 3.5 | 7.0 | 0.00 | 0.00 | 0.00 | 83 | 1011.9 |
| 20260506060631 | 75 | 167 | 2.6 | 6.1 | 0.00 | 0.00 | 0.00 | 83 | 1011.8 |
| 20260506050830 | 75 | 143 | 1.7 | 2.6 | 0.00 | 0.00 | 0.00 | 82 | 1012.0 |
| 20260506045023 | 76 | 149 | 5.2 | 8.7 | 0.00 | 0.00 | 0.00 | 82 | 1011.9 |
| 20260506044025 | 76 | 149 | 3.5 | 7.8 | 0.00 | 0.00 | 0.00 | 82 | 1012.0 |
| 20260506043123 | 76 | 150 | 3.5 | 7.8 | 0.00 | 0.00 | 0.00 | 82 | 1012.0 |
| 20260506042124 | 76 | 155 | 3.5 | 7.0 | 0.00 | 0.00 | 0.00 | 82 | 1011.8 |
| 20260506041125 | 76 | 148 | 1.7 | 4.3 | 0.00 | 0.00 | 0.00 | 82 | 1011.8 |
| 20260506040125 | 76 | 146 | 1.7 | 4.3 | 0.00 | 0.00 | 0.00 | 82 | 1011.7 |
| 20260506035124 | 76 | 157 | 2.6 | 5.2 | 0.00 | 0.00 | 0.00 | 82 | 1011.4 |
| 20260506034224 | 76 | 149 | 2.6 | 6.1 | 0.00 | 0.00 | 0.00 | 82 | 1011.5 |
| 20260506032225 | 76 | 135 | 0.9 | 2.6 | 0.00 | 0.00 | 0.00 | 82 | 1011.2 |
| 20260506031224 | 76 | 159 | 1.7 | 2.6 | 0.00 | 0.00 | 0.00 | 82 | 1011.1 |
| 20260506030241 | 76 | 157 | 0.0 | 1.7 | 0.00 | 0.00 | 0.00 | 82 | 1010.8 |
| 20260506024224 | 76 | 136 | 0.9 | 3.5 | 0.00 | 0.00 | 0.00 | 81 | 1010.7 |
| 20260506023240 | 76 | 169 | 0.0 | 1.7 | 0.00 | 0.00 | 0.00 | 81 | 1010.6 |
| 20260506022225 | 76 | 149 | 1.7 | 4.3 | 0.00 | 0.00 | 0.00 | 81 | 1010.3 |
| 20260506020326 | 76 | 135 | 0.0 | 1.7 | 0.00 | 0.00 | 0.00 | 80 | 1010.0 |
| 20260506015424 | 76 | 157 | 0.0 | 0.9 | 0.00 | 0.00 | 0.00 | 80 | 1009.9 |
| 20260506014424 | 77 | 135 | 0.0 | 0.0 | 0.00 | 0.00 | 0.00 | 79 | 1009.8 |
| 20260506013523 | 77 | 135 | 0.0 | 0.0 | 0.00 | 0.00 | 0.00 | 79 | 1009.8 |
| 20260506012526 | 78 | 135 | 0.0 | 0.0 | 0.00 | 0.00 | 0.00 | 77 | 1009.7 |
| 20260506011526 | 79 | 135 | 0.0 | 0.0 | 0.00 | 0.00 | 0.00 | 77 | 1009.8 |
| 20260506010624 | 79 | 135 | 0.0 | 0.0 | 0.00 | 0.00 | 0.00 | 76 | 1009.8 |